Stations météo

Publicité
Cap Cepet, France (7661): Température de l'air & dewpoint: 19.06.2018 01:00:00 - 25.06.2018 01:00:00 (CEST)Cap Cepet, France (7661): Vitesse du vent & gusts: 19.06.2018 01:00:00 - 25.06.2018 01:00:00 (CEST)Cap Cepet, France (7661): Direction du vent: 19.06.2018 01:00:00 - 25.06.2018 01:00:00 (CEST)Cap Cepet, France (7661): reduced air pressure: 19.06.2018 01:00:00 - 25.06.2018 01:00:00 (CEST)Cap Cepet, France (7661): visibility: 19.06.2018 01:00:00 - 25.06.2018 01:00:00 (CEST)Cap Cepet, France (7661): Quantités de précipitations: 19.06.2018 01:00:00 - 25.06.2018 01:00:00 (CEST)
Date & Time tt [°C] td [°C] ff [km/h] ff [knt] fx [km/h] fx [knt] dd ppp [hPa] vv [km] rr [mm]
25.06.2018 01:00:00 17,7 16,0 10 6 20 11 ENE 1015,9 - 0,0
25.06.2018 00:00:00 18,1 16,6 14 8 18 10 ENE 1015,9 - 0,0
24.06.2018 23:00:00 19,0 17,1 12 6 29 15 ENE 1016,1 - 0,0
24.06.2018 22:00:00 19,6 17,0 7 4 22 12 W 1015,6 - 0,0
24.06.2018 21:00:00 19,8 17,9 15 8 45 24 NE 1015,7 - 0,2
24.06.2018 20:00:00 21,0 16,0 29 16 42 23 NE 1016,0 40 0,0
24.06.2018 19:00:00 24,1 16,1 10 5 22 12 SE 1014,7 - 0,0
24.06.2018 18:00:00 24,0 15,8 10 6 23 12 SE 1014,8 - 0,0
24.06.2018 17:00:00 25,8 17,2 10 5 19 10 SE 1014,6 - 0,0
24.06.2018 16:00:00 26,1 18,2 6 4 20 11 ESE 1015,2 - 0,0
24.06.2018 15:00:00 25,1 17,8 6 4 20 11 SE 1015,6 - 0,0
24.06.2018 14:00:00 25,2 18,4 8 4 21 11 S 1016,3 - 0,0
24.06.2018 13:00:00 24,6 19,2 11 6 22 12 SSE 1016,4 - 0,0
24.06.2018 12:00:00 23,1 19,7 10 5 27 14 SSE 1016,5 - 0,0
24.06.2018 11:00:00 25,7 18,9 16 8 27 14 ENE 1016,0 25 0,0
24.06.2018 10:00:00 23,9 16,7 11 6 18 10 ENE 1016,4 - 0,0
24.06.2018 09:00:00 20,3 15,3 11 6 17 9 ENE 1016,2 - 0,0
24.06.2018 08:00:00 18,4 15,3 10 5 18 10 ENE 1016,3 - 0,0
24.06.2018 07:00:00 18,5 14,8 16 8 20 11 ENE 1016,2 - 0,0
24.06.2018 06:00:00 17,8 15,4 14 7 19 11 E 1016,0 - 0,0
24.06.2018 05:00:00 18,3 15,7 14 7 19 11 E 1015,8 17 0,0
24.06.2018 04:00:00 18,8 16,8 13 7 18 10 E 1016,1 - 0,0
24.06.2018 03:00:00 18,8 16,6 14 7 18 10 E 1016,4 - 0,0
24.06.2018 02:00:00 19,5 17,5 11 6 13 7 ENE 1016,9 - 0,0
24.06.2018 01:00:00 20,4 15,2 7 4 12 7 NNW 1017,2 - 0,0
24.06.2018 00:00:00 19,9 18,0 10 6 18 10 W 1017,3 - 0,0
23.06.2018 23:00:00 20,4 18,2 12 7 18 10 W 1017,5 - 0,0
23.06.2018 22:00:00 20,8 18,6 9 5 14 8 W 1017,0 - 0,0
23.06.2018 21:00:00 21,4 17,6 9 5 11 6 SSW 1016,8 - 0,0
23.06.2018 20:00:00 22,9 18,0 6 3 10 5 SSW 1016,7 - 0,0
23.06.2018 19:00:00 22,7 18,0 5 3 12 7 S 1016,9 - 0,0
23.06.2018 18:00:00 25,5 19,4 3 2 15 8 E 1017,0 - 0,0
23.06.2018 17:00:00 24,9 18,6 9 5 26 14 SE 1017,0 17 0,0
23.06.2018 16:00:00 26,0 18,2 13 7 32 18 ESE 1017,0 - 0,0
23.06.2018 15:00:00 26,6 15,6 17 9 36 19 E 1017,2 - 0,0
23.06.2018 14:00:00 25,7 17,4 20 11 40 21 E 1017,5 17 0,0
23.06.2018 13:00:00 26,7 18,3 21 11 41 22 E 1017,4 - 0,0
23.06.2018 12:00:00 25,7 18,6 19 11 38 21 ENE 1017,6 - 0,0
23.06.2018 11:00:00 25,6 18,8 19 11 39 21 ENE 1017,2 - 0,0
23.06.2018 10:00:00 25,4 18,3 21 12 36 19 ENE 1016,9 - 0,0
23.06.2018 09:00:00 24,4 16,4 16 8 24 13 NE 1016,6 - 0,0
23.06.2018 08:00:00 22,3 14,7 14 8 26 14 NE 1016,2 - 0,0
23.06.2018 07:00:00 19,7 14,3 16 9 27 15 NE 1015,9 - 0,0
23.06.2018 06:00:00 21,0 13,9 10 6 15 8 ENE 1015,5 - 0,0
23.06.2018 05:00:00 20,2 13,9 11 6 14 8 NE 1015,0 - 0,0
23.06.2018 04:00:00 20,8 17,2 6 3 16 9 NE 1014,9 - 0,0
23.06.2018 03:00:00 20,8 16,6 10 5 18 10 ENE 1014,6 - 0,0
23.06.2018 02:00:00 21,4 19,5 8 5 14 8 E 1014,4 - 0,0
23.06.2018 01:00:00 21,3 18,7 10 5 17 9 SE 1014,4 - 0,0
23.06.2018 00:00:00 21,5 17,5 13 7 25 13 SE 1014,0 - 0,0
22.06.2018 23:00:00 22,4 16,0 17 9 28 15 ESE 1013,7 - 0,0
22.06.2018 22:00:00 24,1 12,1 5 3 17 9 WNW 1012,9 - 0,0
22.06.2018 21:00:00 25,2 11,7 9 5 16 9 W 1012,2 - 0,0
22.06.2018 20:00:00 28,0 12,4 10 6 19 10 W 1011,8 20 0,0
22.06.2018 19:00:00 27,1 15,1 7 4 15 8 SSW 1011,6 - 0,0
22.06.2018 18:00:00 28,9 15,8 5 3 16 9 SSW 1011,5 - 0,0
22.06.2018 17:00:00 29,9 12,8 9 5 27 15 W 1011,0 - 0,0
22.06.2018 16:00:00 29,2 11,7 15 8 39 21 W 1011,0 - 0,0
22.06.2018 15:00:00 29,8 12,2 16 9 40 22 W 1010,5 - 0,0
22.06.2018 14:00:00 29,4 11,4 22 12 38 21 W 1010,5 - 0,0
22.06.2018 13:00:00 28,8 11,8 16 9 44 24 W 1010,6 - 0,0
22.06.2018 12:00:00 26,4 12,1 29 15 53 29 W 1010,4 - 0,0
22.06.2018 11:00:00 26,0 13,5 25 13 48 26 W 1010,5 - 0,0
22.06.2018 10:00:00 26,4 12,5 24 13 44 24 WNW 1010,8 - 0,0
22.06.2018 09:00:00 23,5 15,0 17 9 28 15 W 1010,9 - 0,0
22.06.2018 08:00:00 22,6 14,4 13 7 24 13 W 1010,9 25 0,0
22.06.2018 07:00:00 21,9 15,3 11 6 33 18 WNW 1011,1 - 0,0
22.06.2018 06:00:00 21,6 15,9 23 13 51 28 W 1011,0 - 0,0
22.06.2018 05:00:00 22,3 17,2 35 19 54 29 W 1011,0 25 0,0
22.06.2018 04:00:00 22,2 17,1 34 18 49 26 W 1011,0 - 0,0
22.06.2018 03:00:00 20,9 18,7 30 16 44 24 W 1011,9 - 0,0
22.06.2018 02:00:00 20,9 18,7 23 13 39 21 W 1012,9 - 0,0
22.06.2018 01:00:00 21,2 17,8 24 13 36 19 W 1013,5 - 0,0
22.06.2018 00:00:00 21,4 17,8 24 13 43 23 W 1014,0 - 0,0
21.06.2018 23:00:00 21,9 17,3 24 13 46 25 W 1014,2 - 0,0
21.06.2018 22:00:00 22,3 16,3 32 17 52 28 W 1013,8 - 0,0
21.06.2018 21:00:00 23,3 14,3 25 14 53 28 W 1013,9 - 0,0
21.06.2018 20:00:00 25,3 13,5 34 18 51 28 W 1013,8 - 0,0
21.06.2018 19:00:00 27,2 12,4 33 18 55 30 W 1013,3 - 0,0
21.06.2018 18:00:00 26,1 14,2 35 19 60 32 W 1014,0 - 0,0
21.06.2018 17:00:00 29,0 14,8 29 15 55 30 W 1014,3 - 0,0
21.06.2018 16:00:00 29,5 16,0 31 17 56 30 W 1014,4 - 0,0
21.06.2018 15:00:00 29,3 15,4 29 16 53 29 W 1015,0 - 0,0
21.06.2018 14:00:00 29,7 14,7 23 13 42 23 W 1015,6 - 0,0
21.06.2018 13:00:00 30,0 16,1 18 10 28 15 WNW 1015,9 - 0,0
21.06.2018 12:00:00 29,6 15,7 10 5 16 9 WNW 1016,3 - 0,0
21.06.2018 11:00:00 29,5 15,2 7 4 14 8 WNW 1016,3 20 0,0
21.06.2018 10:00:00 26,4 15,7 10 5 14 8 SSW 1016,7 - 0,0
21.06.2018 09:00:00 26,1 17,2 2 1 8 4 WSW 1016,8 - 0,0
21.06.2018 08:00:00 25,2 16,3 2 1 6 3 S 1016,8 - 0,0
21.06.2018 07:00:00 22,9 14,5 2 1 8 4 E 1016,8 - 0,0
21.06.2018 06:00:00 23,7 14,4 4 2 9 5 ESE 1016,8 - 0,0
21.06.2018 05:00:00 23,0 14,8 4 2 9 5 NW 1016,9 20 0,0
21.06.2018 04:00:00 23,5 14,8 7 4 10 5 WNW 1017,2 - 0,0
21.06.2018 03:00:00 24,1 14,5 6 3 7 4 WNW 1017,5 - 0,0
21.06.2018 02:00:00 24,0 13,2 4 2 6 3 W 1017,9 - 0,0
21.06.2018 01:00:00 24,4 13,6 0 0 6 3 N 1018,0 - 0,0
21.06.2018 00:00:00 24,6 13,5 6 4 9 5 WNW 1018,2 - 0,0
20.06.2018 23:00:00 24,7 12,9 9 5 15 8 WNW 1018,5 - 0,0
20.06.2018 22:00:00 24,6 12,9 10 5 16 8 WNW 1018,1 - 0,0
20.06.2018 21:00:00 25,2 11,4 9 5 15 8 W 1018,0 - 0,0
20.06.2018 20:00:00 25,7 12,5 9 5 15 8 W 1018,0 - 0,0
20.06.2018 19:00:00 25,8 12,3 10 6 14 8 SSW 1018,0 - 0,0
20.06.2018 18:00:00 28,2 11,7 2 1 11 6 NNE 1018,4 - 0,0
20.06.2018 17:00:00 28,7 12,6 8 5 16 9 SSE 1018,3 - 0,0
20.06.2018 16:00:00 28,7 13,8 10 6 21 12 SSE 1018,8 - 0,0
20.06.2018 15:00:00 28,6 16,5 11 6 27 15 SE 1019,0 - 0,0
20.06.2018 14:00:00 28,2 15,8 15 8 35 19 E 1019,3 - 0,0
20.06.2018 13:00:00 26,3 17,6 19 11 40 21 E 1019,6 - 0,0
20.06.2018 12:00:00 27,2 20,0 19 11 38 21 E 1019,3 - 0,0
20.06.2018 11:00:00 27,1 18,1 11 6 21 11 ESE 1019,2 20 0,0
20.06.2018 10:00:00 27,8 17,6 13 7 29 16 ENE 1019,1 - 0,0
20.06.2018 09:00:00 25,6 17,5 20 11 28 15 ENE 1019,0 - 0,0
20.06.2018 08:00:00 22,2 17,3 18 10 27 15 ENE 1019,0 - 0,0
20.06.2018 07:00:00 21,0 16,8 14 7 25 14 ENE 1018,6 - 0,0
20.06.2018 06:00:00 21,5 16,2 21 11 27 14 NE 1018,1 - 0,0
20.06.2018 05:00:00 22,2 16,0 4 2 10 5 NNE 1018,0 20 0,0
20.06.2018 04:00:00 21,8 16,3 3 1 7 4 NNE 1017,9 - 0,0
20.06.2018 03:00:00 23,0 15,8 5 3 10 5 ESE 1018,1 - 0,0
20.06.2018 02:00:00 21,2 16,8 11 6 18 10 WNW 1018,4 - 0,0
20.06.2018 01:00:00 21,6 16,5 14 8 22 12 W 1018,5 - 0,0
20.06.2018 00:00:00 22,3 16,6 16 9 24 13 W 1018,5 - 0,0
19.06.2018 23:00:00 23,2 15,5 12 7 17 9 W 1018,4 - 0,0
19.06.2018 22:00:00 24,0 14,7 8 5 18 10 W 1018,1 - 0,0
19.06.2018 21:00:00 24,9 17,6 10 6 16 9 W 1017,7 - 0,0
19.06.2018 20:00:00 25,6 16,2 9 5 14 7 SSW 1017,8 17 0,0
19.06.2018 19:00:00 27,5 15,2 7 4 14 7 SSW 1018,0 - 0,0
19.06.2018 18:00:00 26,0 18,4 5 3 12 6 S 1018,4 - 0,0
19.06.2018 17:00:00 28,4 16,3 4 2 10 5 SSW 1018,5 - 0,0
19.06.2018 16:00:00 27,9 18,9 4 2 16 9 S 1018,8 - 0,0
19.06.2018 15:00:00 26,8 20,6 9 5 23 12 SSE 1018,9 - 0,0
19.06.2018 14:00:00 27,0 19,9 8 5 19 11 S 1018,8 17 0,0
19.06.2018 13:00:00 28,0 18,1 9 5 24 13 S 1019,0 - 0,0
19.06.2018 12:00:00 28,5 16,4 11 6 19 10 SSE 1018,9 - 0,0
19.06.2018 11:00:00 28,2 17,1 7 4 17 9 SSE 1018,8 20 0,0
19.06.2018 10:00:00 28,1 17,0 10 6 20 11 NE 1018,8 - 0,0
19.06.2018 09:00:00 25,8 16,6 12 7 26 14 ENE 1018,5 - 0,0
19.06.2018 08:00:00 23,0 16,1 15 8 25 14 NE 1018,0 - 0,0
19.06.2018 07:00:00 20,4 16,0 14 8 27 15 ENE 1017,8 - 0,0
19.06.2018 06:00:00 20,6 14,9 20 11 23 13 ENE 1017,2 - 0,0
19.06.2018 05:00:00 21,3 14,9 20 11 30 16 NE 1016,9 - 0,0
19.06.2018 04:00:00 21,3 14,9 18 10 24 13 NE 1016,9 - 0,0
19.06.2018 03:00:00 22,3 14,9 14 8 17 9 ENE 1016,6 - 0,0
19.06.2018 02:00:00 22,1 15,7 3 2 11 6 ENE 1016,7 - 0,0
19.06.2018 01:00:00 23,4 15,2 6 3 11 6 NE 1016,7 - 0,0

tt = Température de l'air
td = dewpoint
ff = Vitesse du vent
fx = gusts
dd = Direction du vent
ppp = reduced air pressure
vv = visibility
rr = Quantités de précipitations

stations d'obs. à proximité